Tracking 25710 objects as of 5-Jul-2022
HD Live streaming from Space Station
objects crossing your sky now

FENGYUN 1C DEB

Track FENGYUN 1C DEB now!
10-day predictions


NORAD ID: 32114
Int'l Code: 1999-025CRG
Perigee: 692.8 km
Apogee: 806.8 km
Inclination: 100.0 °
Period: 99.7 minutes
Semi major axis: 7120 km
RCS: 0.0153 m2 (small)
Launch date: May 10, 1999
Source: People's Republic of China (PRC)
Launch site: Taiyaun Space Center, China (TSC)

Note: This is SATELLITE DEBRIS
aabbcc
Your satellite tracking list
Your tracking list is empty




NASA's NSSDC Master Catalog

Two Line Element Set (TLE):
1 32114U 99025CRG 22184.85078069  .00001276  00000-0  36990-3 0  9992
2 32114  99.9581  44.2892 0080096  88.1271 272.9086 14.44810073474116
Source of the keplerian elements: AFSPC